Flight Track Log - Related Links

Times and Time Zones

All times are in EDT time to prevent confusion due to time zone crossing. See the DAL6197 flight status page for this flight to view local times or setup timezone preferences in your user account.


Time Position Orientation Groundspeed Altitude Reporting Facility
EDT Latitude Longitude Course Direction KTS MPH feet Rate Location/Type
Fri 11:19:30 AM 42.9333 -78.7333 206° Southwest 154 177 1,500  Level Buffalo TRACON
Fri 11:20:30 AM 42.8833 -78.7667 206° Southwest 181 208 3,600 2,541 Climbing Buffalo TRACON
Fri 11:21:21 AM 42.8661 -78.7164 115° Southeast 222 255 6,200 2,486 Climbing Cleveland Center
Fri 11:22:21 AM 42.8583 -78.6261 97° East 248 285 8,200 2,150 Climbing Cleveland Center
Fri 11:23:21 AM 42.8544 -78.5242 93° East 275 316 10,500 2,300 Climbing Cleveland Center
Fri 11:24:21 AM 42.8542 -78.3967 90° East 303 349 12,800 2,050 Climbing Cleveland Center
Fri 11:25:21 AM 42.8517 -78.2581 91° East 339 390 14,600 2,100 Climbing Cleveland Center
Fri 11:26:21 AM 42.8464 -78.1081 93° East 374 430 17,000 2,100 Climbing Cleveland Center
Fri 11:27:21 AM 42.8411 -77.9583 93° East 387 445 18,800 1,950 Climbing Cleveland Center
Fri 11:28:21 AM 42.8353 -77.8028 93° East 398 458 20,900 2,000 Climbing Cleveland Center
Fri 11:29:21 AM 42.8333 -77.6414 91° East 409 471 22,800 1,678 Climbing Cleveland Center
Fri 11:31:52 AM 42.8250 -77.2281 91° East 440 506 26,800 1,592 Climbing Boston Center
Fri 11:32:52 AM 42.8214 -77.0578 92° East 445 512 28,400 1,100 Climbing Boston Center
Fri 11:33:52 AM 42.7822 -76.8936 108° East 450 518 29,000 300 Climbing Boston Center
Fri 11:34:52 AM 42.7108 -76.7442 123° Southeast 468 539 29,000  Level Boston Center
Fri 11:35:52 AM 42.6522 -76.5819 116° Southeast 484 557 29,000  Level Boston Center
Fri 11:36:52 AM 42.6269 -76.4081 101° East 468 539 29,000  Level Boston Center
Fri 11:37:52 AM 42.6058 -76.2347 99° East 468 539 29,000  Level Boston Center
Fri 11:38:52 AM 42.5825 -76.0583 100° East 468 539 29,000  Level Boston Center
Fri 11:39:52 AM 42.5567 -75.8847 101° East 468 539 29,000  Level Boston Center
Fri 11:40:52 AM 42.5328 -75.7058 100° East 473 544 29,000  Level Boston Center
Fri 11:41:52 AM 42.5083 -75.5328 101° East 468 539 29,000 -750 Level Boston Center
Fri 11:42:52 AM 42.4839 -75.3569 101° East 468 539 27,500 -1,650 Descending Boston Center
Fri 11:43:52 AM 42.4383 -75.1719 108° East 468 539 25,700 -1,650 Descending Boston Center
Fri 11:44:52 AM 42.3836 -75.0150 115° Southeast 468 539 24,200 -1,500 Descending Boston Center
Fri 11:45:52 AM 42.3286 -74.8636 116° Southeast 457 526 22,700 -1,500 Descending Boston Center
Fri 11:46:52 AM 42.2711 -74.7183 118° Southeast 445 512 21,200 -1,500 Descending Boston Center
Fri 11:47:52 AM 42.2197 -74.5736 116° Southeast 439 505 19,700 -1,300 Descending Boston Center
Fri 11:48:52 AM 42.1681 -74.4372 117° Southeast 427 491 18,600 -850 Descending Boston Center
Fri 11:49:52 AM 42.1183 -74.2958 115° Southeast 414 476 18,000 -300 Descending Boston Center
Fri 11:50:52 AM 42.0619 -74.1794 123° Southeast 414 476 18,000  Level Boston Center
Fri 11:51:52 AM 41.9972 -74.0519 124° Southeast 419 482 18,000 50 Level Boston Center
Fri 11:52:52 AM 41.9092 -73.9297 134° Southeast 413 475 18,100 -850 Climbing Boston Center
Fri 11:53:52 AM 41.8133 -73.9164 174° South 372 428 16,300 -1,850 Descending Boston Center
Fri 11:54:52 AM 41.7072 -73.9056 176° South 359 413 14,400 -1,732 Descending Boston Center
Fri 11:56:00 AM 41.5937 -73.8590 166° South  Level FlightAware Approximate
Fri 11:57:06 AM 41.4833 -73.8833 166° South 339 390 10,700  Level New York TRACON
Fri 11:58:12 AM 41.4000 -73.8500 163° South 295 339 9,600 -1,190 Descending New York TRACON
Fri 11:59:12 AM 41.3333 -73.8000 151° Southeast 287 330 8,200 -800 Descending New York TRACON
Fri 12:00:12 PM 41.2833 -73.7333 135° Southeast 275 316 8,000 -800 Descending New York TRACON
Fri 12:01:12 PM 41.2167 -73.6833 151° Southeast 272 313 6,600 -1,587 Descending New York TRACON
Fri 12:02:13 PM 41.1500 -73.6333 151° Southeast 271 312 4,800 -1,300 Descending New York TRACON
Fri 12:03:12 PM 41.0833 -73.6000 159° South 267 307 4,000 -425 Descending New York TRACON
Fri 12:04:06 PM 41.0167 -73.5833 169° South 265 305 4,000  Level New York TRACON
Fri 12:05:06 PM 40.9500 -73.6000 191° South 260 299 4,000  Level New York TRACON
Fri 12:06:06 PM 40.8833 -73.6500 210° Southwest 263 303 4,000  Level New York TRACON
Fri 12:07:12 PM 40.8000 -73.6833 197° South 252 290 4,000  Level New York TRACON
Fri 12:08:12 PM 40.7833 -73.7667 255° West 251 289 4,000  Level New York TRACON
Fri 12:09:12 PM 40.7833 -73.8500 270° West 193 222 4,000  Level New York TRACON
Fri 12:10:12 PM 40.7667 -73.9167 252° West 179 206 4,000  Level New York TRACON
Fri 12:11:12 PM 40.7667 -73.9833 270° West 186 214 4,000  Level New York TRACON
Fri 12:12:12 PM 40.7333 -74.0333 229° Southwest 193 222 4,000 -450 Level New York TRACON
Fri 12:13:12 PM 40.6833 -74.0333 180° South 200 230 3,100 -900 Descending New York TRACON

Login

Don't have an account? Register now (free) for customized features, flight alerts, and more!